Wind_Speed
27 29 31 34 36 39 41 43 44 44 43 43 42 41 40 39 38 37 37 35 34 33 34 33 33 34 35 36 37 37 37 37 35 33 31 30 28 27 25 24 24 23 22
28 30 32 35 37 39 40 41 41 40 40 40 40 40 40 40 40 39 39 37 35 34 33 32 32 33 33 34 34 37 38 37 35 34 32 30 29 27 26 25 25 24 22
28 30 32 34 35 36 37 38 38 38 39 40 40 41 41 41 41 41 40 38 37 35 35 33 32 33 32 33 34 35 37 36 35 35 32 30 30 28 27 26 26 25 23
26 28 30 32 33 34 36 37 38 39 40 42 43 43 44 45 45 44 43 41 40 38 36 36 35 35 34 33 33 34 36 35 35 34 32 31 30 29 29 28 27 26 25
27 29 31 32 34 36 38 40 41 42 43 45 46 47 48 48 48 47 46 45 44 42 40 38 36 36 37 36 35 34 36 36 36 35 34 32 32 32 31 30 29 28 27
29 31 32 34 37 39 41 42 43 45 47 48 49 50 51 51 51 50 49 48 47 46 44 42 41 39 40 40 39 37 38 38 37 37 35 34 34 34 34 33 32 31 29
30 32 34 36 38 40 42 43 45 46 48 49 50 51 52 52 52 52 52 51 51 50 48 47 46 45 44 43 43 42 41 39 39 38 37 37 36 36 36 36 35 33 32
32 34 36 38 39 41 42 44 44 45 46 48 49 49 49 49 49 49 49 50 50 51 51 51 50 50 50 49 48 47 45 44 43 42 41 40 39 38 37 37 37 36 34
34 36 38 40 41 42 42 43 43 43 44 44 43 43 43 43 44 45 46 48 49 50 51 52 53 54 54 54 54 53 51 50 48 47 45 44 42 41 40 39 39 38 37
36 38 40 41 42 42 42 42 42 41 40 39 38 39 40 41 43 44 45 47 48 50 51 52 54 55 56 58 59 59 58 57 54 52 50 48 46 45 44 43 42 41 40
38 40 41 42 42 42 42 41 41 39 38 38 39 40 42 44 45 46 48 48 49 50 52 53 54 55 58 59 61 63 64 64 62 59 56 54 51 49 48 47 45 43 42
40 42 42 42 42 42 42 41 40 39 40 40 42 43 45 47 48 49 49 50 51 52 53 53 55 56 57 59 62 65 67 68 68 66 63 59 57 55 53 50 48 46 45
42 42 42 43 43 42 40 39 39 39 41 42 44 46 47 48 49 50 51 52 53 53 54 54 54 55 57 58 60 62 66 70 71 71 69 65 62 60 58 55 52 50 48
43 43 43 44 43 41 39 38 39 40 42 44 45 47 49 50 51 51 52 52 53 53 54 54 55 55 56 58 60 61 62 66 70 73 73 71 69 64 61 59 57 54 51
44 44 43 44 42 40 38 38 40 42 44 45 46 48 50 50 51 51 51 51 51 51 52 54 55 56 56 57 59 60 62 63 66 70 74 75 74 70 66 62 60 57 55
44 44 44 44 42 40 38 39 41 43 45 46 48 49 50 50 50 50 50 50 49 49 49 50 52 54 56 57 58 59 61 61 62 64 69 72 74 74 71 68 65 60 57
45 45 44 43 42 40 39 40 42 44 46 47 48 49 50 49 49 49 48 47 45 44 44 45 46 49 52 54 56 57 58 59 59 60 62 67 70 71 72 70 67 63 59
46 45 44 43 42 41 40 41 43 45 46 47 48 50 50 49 48 47 45 42 40 39 38 39 40 43 46 50 53 55 57 57 57 57 58 60 64 66 69 70 69 67 62
48 47 46 44 43 41 41 42 44 45 46 47 49 50 49 47 46 44 41 39 35 33 33 33 35 37 41 44 47 49 51 53 53 54 54 55 57 61 64 66 67 67 64
48 47 46 45 43 42 41 43 44 46 47 48 49 49 48 46 43 41 38 35 31 29 28 27 28 30 35 39 41 44 45 47 48 49 50 51 51 54 57 59 61 62 64
49 48 47 46 44 42 42 43 45 46 47 48 48 48 47 45 42 39 35 32 29 26 23 21 21 23 27 32 36 40 41 42 43 44 45 45 46 48 50 53 56 57 60
48 48 47 45 44 43 42 43 44 46 47 47 47 47 46 43 40 37 33 30 27 23 18 15 15 18 22 26 30 34 36 37 39 39 40 41 41 43 45 47 50 53 56
49 48 47 46 44 43 43 43 44 45 46 46 46 45 44 42 38 34 31 27 24 20 15 10 9 12 16 21 25 28 32 33 35 35 36 38 37 38 40 43 46 49 53
49 48 47 45 44 42 42 43 43 45 45 45 45 44 42 40 37 33 29 26 22 18 13 8 5 7 12 17 21 25 28 30 32 32 32 34 35 34 35 37 41 45 48
49 48 47 45 44 42 42 42 43 44 44 44 43 42 41 39 35 32 28 24 21 17 12 7 2 5 10 15 19 22 24 27 28 30 30 31 32 32 32 32 35 40 45
48 48 47 45 43 41 41 41 42 43 43 43 42 41 40 38 34 31 27 23 21 17 11 6 1 4 9 13 17 20 22 24 26 27 28 29 30 30 30 30 32 37 42
Wind_Direction
276 278 279 281 282 284 285 286 287 287 285 286 286 285 285 284 284 285 287 288 286 283 276 274 269 262 258 255 250 246 245 247 249 248 247 247 245 243 240 237 236 236 238
280 281 282 284 285 286 285 286 289 287 286 286 285 285 284 284 285 286 286 286 284 284 278 273 267 262 257 253 250 246 245 246 245 244 244 243 242 239 237 235 234 234 236
285 285 286 287 288 288 288 289 290 289 288 287 286 286 285 284 284 284 283 282 281 279 276 270 266 263 258 252 251 250 246 243 242 242 242 240 240 238 236 234 233 232 233
293 293 293 293 292 292 292 292 292 291 289 288 286 285 285 284 283 281 280 279 277 276 274 268 264 261 254 252 251 247 245 242 240 241 239 238 238 236 234 232 231 231 232
298 297 296 296 295 295 294 293 292 291 289 288 286 285 284 283 282 280 278 276 274 272 269 267 263 258 254 251 250 249 246 242 240 241 240 238 236 234 232 230 230 230 231
300 299 299 298 297 296 295 294 293 291 289 288 287 286 285 284 282 281 279 276 273 270 266 262 260 257 253 250 248 248 246 242 241 241 240 237 235 233 231 229 228 229 230
303 303 301 300 299 298 297 295 293 291 290 288 287 285 284 282 281 279 277 275 273 270 266 262 257 254 251 249 247 246 246 245 243 240 238 236 235 233 231 229 228 228 229
308 307 305 304 302 301 299 297 295 293 291 289 287 286 284 282 280 278 276 274 272 269 266 262 257 253 250 248 247 245 244 245 243 240 238 237 235 234 232 231 229 228 229
312 311 310 308 307 305 303 301 299 297 295 292 291 289 288 286 283 280 277 275 272 269 266 262 258 254 250 247 246 245 243 243 243 241 238 236 235 234 233 232 230 229 229
316 315 314 312 311 310 309 307 305 304 301 299 297 295 292 289 286 283 281 278 274 271 268 264 259 255 250 247 245 244 242 241 241 241 240 238 236 234 233 232 232 231 230
320 319 318 317 316 315 314 313 310 308 305 302 301 299 296 293 290 286 283 279 276 272 268 265 261 257 253 248 244 242 241 240 239 239 239 238 237 235 232 232 232 232 231
324 323 322 321 320 319 317 315 313 311 309 306 304 302 300 297 293 290 286 282 277 273 268 264 261 257 254 250 246 243 240 239 239 238 237 236 235 234 232 231 231 231 231
328 326 325 324 322 320 318 316 315 314 312 310 308 306 303 300 297 293 289 285 280 274 270 265 261 257 253 250 247 244 241 239 238 238 237 236 235 234 233 231 231 230 230
331 329 327 326 324 322 320 318 317 317 316 314 312 310 307 304 301 296 293 288 283 276 270 265 260 257 254 250 246 243 241 239 238 237 236 236 235 234 233 232 231 230 229
332 330 329 328 326 323 321 319 319 319 319 318 316 314 311 308 304 300 296 292 286 279 272 266 260 256 253 250 246 243 240 238 237 237 236 236 235 234 232 232 231 230 229
334 332 331 330 329 326 322 321 321 322 321 320 319 317 315 313 309 305 301 296 289 282 275 268 260 255 250 247 244 242 239 237 236 236 235 235 235 235 233 232 232 230 230
336 334 333 333 332 329 326 325 325 325 324 323 323 321 319 316 313 309 305 302 295 286 278 270 262 254 249 245 242 240 238 236 235 235 235 235 235 235 235 233 231 231 231
337 336 335 335 334 332 330 329 329 329 328 327 326 324 322 320 318 315 311 306 300 290 281 272 263 254 247 243 240 238 236 234 233 233 233 234 234 234 234 234 233 232 233
339 338 337 337 336 335 333 333 332 332 331 330 329 328 326 325 322 320 317 312 305 295 285 275 265 253 245 241 237 235 233 231 230 230 231 232 233 233 233 233 233 233 231
340 339 338 338 338 336 335 335 335 335 334 333 333 332 330 329 327 325 323 319 313 303 292 279 266 254 243 238 234 231 230 228 226 227 229 230 230 231 231 231 231 231 230
340 340 339 339 339 338 337 337 337 337 337 337 337 336 335 334 333 330 329 327 321 314 302 284 267 252 239 232 229 227 224 223 222 222 223 225 226 227 227 228 229 229 229
341 341 340 340 339 339 339 339 339 340 340 340 340 340 340 339 338 337 334 333 330 324 315 294 266 247 233 226 224 220 216 215 216 217 218 220 221 223 224 225 224 225 226
341 341 341 341 341 340 341 341 342 342 343 343 344 344 344 344 343 342 341 340 338 334 327 308 269 240 226 221 216 211 208 207 210 211 214 215 216 218 221 222 223 222 222
341 342 343 343 342 342 342 343 344 345 345 346 347 347 347 348 348 347 346 346 346 344 342 331 279 227 213 209 206 203 203 204 205 207 209 211 211 214 216 219 221 220 218
342 342 343 344 344 343 343 344 345 347 348 348 349 349 349 350 352 351 351 352 352 351 350 347 313 200 195 196 195 198 198 199 201 202 205 207 208 211 213 214 216 216 213
342 343 343 344 344 345 345 346 348 349 350 351 352 352 352 353 354 354 354 354 354 354 357 5 30 179 186 189 193 194 194 196 196 197 200 202 204 206 208 210 211 210 206
Height
5861 5860 5858 5856 5853 5850 5847 5844 5840 5837 5833 5831 5828 5825 5823 5821 5818 5816 5813 5810 5808 5805 5802 5801 5801 5801 5801 5802 5804 5807 5810 5813 5816 5819 5821 5824 5825 5828 5830 5832 5834 5836 5838
5855 5853 5850 5848 5844 5841 5837 5834 5830 5826 5823 5820 5817 5815 5812 5810 5808 5806 5804 5801 5799 5796 5794 5793 5793 5793 5794 5795 5796 5798 5801 5804 5807 5810 5813 5816 5819 5821 5823 5826 5828 5831 5833
5847 5845 5842 5839 5835 5831 5828 5824 5821 5817 5814 5811 5808 5805 5802 5800 5798 5796 5794 5792 5790 5788 5787 5785 5785 5784 5785 5786 5788 5790 5793 5795 5799 5802 5805 5808 5811 5814 5817 5820 5822 5825 5827
5840 5837 5834 5830 5827 5823 5819 5815 5811 5808 5804 5801 5797 5794 5791 5788 5786 5784 5783 5781 5779 5778 5777 5776 5776 5776 5777 5778 5780 5781 5784 5787 5790 5793 5796 5800 5803 5807 5810 5814 5816 5819 5821
5834 5830 5827 5823 5819 5814 5810 5806 5802 5797 5793 5789 5785 5782 5779 5776 5773 5771 5770 5769 5768 5767 5767 5767 5767 5767 5768 5769 5771 5773 5775 5778 5781 5785 5788 5792 5795 5799 5803 5806 5810 5813 5815
5828 5824 5819 5815 5810 5805 5800 5796 5791 5787 5782 5777 5773 5769 5765 5762 5760 5757 5756 5755 5754 5754 5754 5755 5756 5756 5758 5759 5761 5763 5766 5769 5772 5775 5779 5783 5787 5790 5795 5798 5802 5806 5809
5821 5816 5812 5807 5802 5796 5791 5786 5781 5776 5770 5765 5760 5756 5752 5749 5746 5744 5741 5740 5739 5739 5740 5741 5742 5744 5746 5748 5750 5753 5756 5758 5762 5765 5769 5773 5778 5782 5786 5790 5794 5798 5802
5814 5809 5803 5798 5792 5787 5781 5775 5770 5764 5759 5753 5748 5743 5739 5735 5732 5730 5727 5725 5724 5724 5724 5725 5727 5729 5732 5734 5737 5740 5744 5747 5751 5754 5759 5763 5767 5772 5777 5781 5786 5790 5794
5806 5800 5794 5788 5782 5776 5770 5764 5758 5752 5746 5740 5735 5730 5726 5722 5718 5715 5713 5711 5709 5708 5707 5708 5710 5712 5715 5719 5722 5726 5730 5734 5738 5742 5747 5752 5757 5762 5767 5772 5777 5782 5786
5798 5792 5785 5778 5771 5765 5758 5751 5745 5739 5733 5727 5723 5718 5713 5709 5705 5702 5699 5696 5694 5692 5691 5691 5692 5694 5697 5701 5705 5709 5714 5719 5724 5729 5734 5739 5745 5751 5756 5761 5767 5772 5777
5790 5783 5776 5768 5761 5754 5746 5739 5733 5727 5721 5716 5711 5706 5701 5696 5691 5687 5683 5680 5677 5675 5673 5673 5674 5675 5678 5682 5686 5691 5697 5702 5707 5713 5719 5726 5732 5738 5744 5750 5756 5761 5767
5782 5774 5766 5758 5751 5743 5736 5728 5722 5716 5710 5704 5699 5693 5687 5681 5675 5670 5666 5662 5659 5656 5654 5654 5654 5656 5658 5662 5667 5672 5678 5683 5690 5696 5703 5710 5717 5724 5730 5737 5744 5750 5756
5773 5765 5757 5749 5741 5733 5726 5719 5712 5705 5699 5692 5685 5678 5671 5665 5658 5652 5647 5642 5638 5635 5634 5633 5634 5635 5638 5641 5646 5651 5658 5664 5671 5678 5685 5693 5701 5708 5716 5724 5731 5738 5744
5765 5756 5748 5740 5732 5724 5716 5709 5702 5695 5688 5680 5672 5664 5657 5649 5641 5634 5627 5621 5617 5614 5612 5612 5613 5614 5617 5621 5626 5631 5637 5644 5651 5659 5667 5675 5683 5692 5701 5709 5717 5724 5731
5758 5749 5740 5732 5723 5715 5707 5700 5692 5685 5676 5668 5659 5650 5641 5632 5624 5615 5608 5601 5596 5592 5590 5590 5591 5593 5596 5601 5605 5611 5618 5624 5632 5640 5648 5657 5665 5675 5685 5694 5702 5710 5718
5751 5742 5733 5724 5715 5706 5698 5691 5683 5674 5665 5656 5646 5636 5626 5616 5607 5598 5589 5582 5576 5571 5568 5567 5568 5571 5574 5580 5585 5591 5598 5606 5614 5622 5630 5638 5648 5658 5668 5678 5687 5696 5705
5744 5734 5725 5716 5707 5698 5689 5681 5673 5664 5654 5644 5634 5623 5612 5602 5591 5581 5571 5563 5556 5551 5548 5547 5547 5550 5554 5559 5566 5572 5580 5589 5597 5606 5613 5622 5631 5640 5651 5662 5672 5681 5691
5737 5727 5718 5708 5699 5690 5681 5672 5663 5653 5643 5633 5622 5611 5599 5588 5577 5566 5556 5547 5540 5534 5531 5529 5529 5532 5536 5541 5547 5554 5562 5572 5582 5590 5599 5607 5616 5625 5635 5647 5656 5667 5678
5730 5719 5709 5700 5691 5682 5673 5664 5654 5644 5633 5623 5611 5600 5587 5576 5564 5553 5543 5534 5526 5520 5516 5514 5514 5516 5520 5525 5531 5538 5547 5558 5568 5577 5585 5594 5602 5612 5622 5633 5644 5654 5665
5723 5713 5703 5693 5684 5675 5665 5656 5646 5635 5625 5613 5602 5589 5577 5565 5554 5543 5532 5523 5515 5509 5505 5503 5502 5503 5507 5512 5518 5526 5536 5546 5556 5566 5574 5582 5591 5599 5608 5618 5629 5640 5651
5717 5707 5696 5686 5677 5668 5658 5648 5638 5628 5617 5605 5593 5581 5568 5557 5545 5534 5524 5516 5508 5501 5496 5494 5493 5494 5497 5502 5509 5517 5526 5536 5545 5554 5563 5572 5580 5589 5597 5606 5616 5627 5638
5712 5701 5691 5680 5670 5661 5652 5642 5632 5621 5610 5598 5586 5574 5561 5550 5538 5528 5519 5511 5503 5496 5491 5488 5487 5488 5491 5496 5502 5510 5519 5528 5537 5546 5555 5563 5572 5580 5588 5596 5605 5616 5626
5706 5696 5685 5675 5664 5654 5645 5636 5626 5615 5604 5592 5580 5568 5556 5545 5534 5524 5515 5507 5500 5494 5489 5485 5484 5485 5488 5492 5498 5505 5513 5522 5531 5540 5547 5556 5564 5572 5580 5588 5596 5605 5616
5700 5690 5680 5669 5659 5649 5640 5630 5620 5610 5599 5588 5576 5564 5553 5542 5532 5522 5513 5506 5499 5493 5488 5485 5484 5484 5486 5490 5496 5502 5510 5518 5526 5534 5542 5550 5558 5566 5573 5580 5588 5597 5607
5695 5685 5674 5664 5654 5645 5635 5626 5616 5606 5595 5584 5573 5562 5551 5540 5530 5521 5513 5506 5500 5494 5489 5486 5485 5485 5487 5490 5495 5501 5508 5515 5523 5530 5538 5545 5553 5560 5568 5575 5582 5589 5599
5690 5680 5670 5660 5650 5641 5632 5622 5613 5603 5592 5582 5571 5560 5550 5539 5530 5521 5513 5506 5500 5495 5491 5488 5487 5487 5488 5491 5496 5501 5507 5513 5520 5527 5534 5542 5549 5556 5563 5569 5576 5584 5592